Theta_e
275 275 274 274 273 272 272 272 272 275 275 275 276 281 283 284 292 291 291 291 293 296 296 307 309 310 309 309 308 307 307 308 303 291 294 299 296 297 297 300 301 304 306
274 273 273 273 272 271 270 270 271 271 272 274 275 277 279 283 290 290 289 290 290 294 298 304 307 308 308 309 307 307 306 308 302 293 293 295 296 294 295 297 295 296 298
272 272 272 271 271 270 270 270 270 271 271 271 272 274 277 280 281 290 289 289 289 290 295 296 306 307 306 308 307 307 307 307 301 296 290 294 293 294 292 290 291 292 291
270 270 270 270 270 269 270 270 269 269 269 270 271 274 277 278 280 281 288 288 289 290 293 294 306 306 306 306 306 306 306 305 299 296 296 294 295 292 295 294 290 289 291
268 268 269 270 270 269 268 268 269 269 269 270 271 275 276 277 278 280 285 288 288 289 289 294 307 305 302 306 306 305 304 303 298 297 295 293 292 291 293 294 293 293 287
267 268 269 268 268 268 267 267 267 268 268 269 270 271 274 276 279 282 284 287 289 287 288 292 300 299 298 301 303 304 304 295 295 295 294 293 292 293 294 294 292 291 289
266 267 267 267 266 266 266 266 266 266 267 268 268 269 271 275 279 281 284 284 288 289 288 288 291 302 299 301 301 301 300 300 299 298 292 295 292 294 294 292 291 292 293
265 265 266 265 264 265 264 264 265 266 266 267 267 269 270 275 279 280 283 283 285 288 288 288 290 301 301 300 300 298 297 298 298 299 296 296 296 296 294 295 291 289 287
264 264 264 263 262 262 261 263 264 265 266 266 267 267 268 271 278 280 281 284 287 287 288 289 291 299 299 299 298 295 295 295 297 297 298 297 297 297 295 292 289 288 283
263 263 263 262 260 261 262 264 267 267 268 268 268 268 269 271 278 281 283 284 286 286 288 289 290 298 297 299 299 296 293 293 292 290 292 294 295 295 294 293 290 289 284
262 262 260 260 260 263 264 265 266 267 269 269 268 268 270 273 276 281 285 285 286 286 288 290 296 297 297 298 299 296 296 294 293 291 291 290 290 291 292 292 292 292 289
260 258 257 258 261 263 263 264 265 266 268 271 268 269 273 276 280 282 286 288 289 287 288 294 298 296 297 298 298 298 298 294 293 292 290 289 288 289 290 291 291 293 294
255 254 257 260 261 262 262 263 263 265 267 268 272 276 279 281 281 284 285 287 289 289 290 295 297 296 296 297 298 296 293 294 293 291 291 290 290 291 290 290 289 285 282
253 255 260 260 260 261 262 263 263 264 265 267 269 271 273 281 284 288 288 289 289 290 291 296 296 296 297 298 295 295 294 296 294 294 293 292 291 289 289 290 288 288 288
254 257 259 259 259 260 261 261 263 265 267 267 268 271 270 273 278 285 289 289 290 291 292 292 293 295 294 296 295 295 294 295 294 295 293 291 290 288 289 289 288 287 288
253 256 258 258 258 260 259 259 264 266 268 269 270 271 269 275 278 283 288 290 293 294 290 290 291 293 293 294 294 293 295 292 295 295 294 292 290 289 288 288 289 287 287
252 255 257 258 258 257 257 257 256 259 264 265 267 270 269 273 275 277 283 290 294 293 290 290 291 291 293 293 293 293 293 293 294 293 293 291 291 290 288 287 288 287 286
252 255 256 256 257 257 257 256 257 255 255 256 262 266 265 269 271 272 275 286 284 273 281 288 289 290 291 291 292 292 293 292 291 292 292 290 290 289 287 287 287 287 287
253 254 255 256 257 257 256 256 256 255 255 255 256 262 260 264 266 266 266 261 262 264 265 266 268 280 290 291 291 291 291 290 291 290 290 289 289 288 288 288 288 288 288
252 254 254 254 255 255 255 255 255 254 254 254 254 259 258 257 256 256 257 257 259 260 263 264 265 266 268 274 288 290 289 289 289 289 289 289 289 288 288 288 288 287 287
251 252 253 253 254 254 254 254 254 254 253 253 254 257 263 255 254 255 255 256 256 258 260 264 264 265 266 267 270 281 287 289 289 289 289 288 288 287 288 288 287 287 287
250 250 252 252 253 253 253 254 253 253 253 252 253 254 260 254 254 254 255 255 256 257 259 261 264 265 265 265 266 268 271 272 280 287 289 289 288 288 288 288 287 287 287
250 250 251 251 252 252 253 253 253 252 252 252 252 253 253 252 253 253 253 255 256 257 258 260 262 263 266 266 266 266 267 268 271 278 286 287 287 287 287 287 287 286 286
248 249 250 250 250 251 251 251 252 252 252 252 252 252 252 252 252 252 253 254 255 256 257 259 261 262 263 266 267 266 267 268 270 272 275 276 278 282 284 285 285 285 285
243 247 247 248 248 249 249 250 251 251 251 251 251 251 252 252 252 252 253 254 255 255 256 258 259 262 262 264 266 267 266 266 267 269 270 270 271 272 273 274 275 276 277
246 247 245 247 248 248 248 249 249 250 250 250 251 251 251 251 252 252 252 253 254 255 256 257 258 262 263 263 265 268 269 268 265 266 267 267 267 267 268 268 269 270 270
Wind_Speed
16 17 17 19 18 17 16 17 18 17 18 20 18 19 17 16 11 6 6 9 12 14 15 15 20 21 15 14 14 14 13 12 14 2 4 6 6 11 7 7 10 11 9
16 18 18 19 19 19 17 18 19 19 17 19 18 19 18 16 18 7 6 9 11 13 14 13 17 14 21 19 16 20 17 15 13 14 6 5 6 9 9 11 6 5 8
17 17 18 19 19 19 19 19 19 19 18 20 18 19 16 17 15 11 8 7 10 13 17 11 20 21 19 18 19 17 16 13 15 11 7 4 3 8 5 4 4 5 3
18 19 19 19 19 19 19 19 20 20 19 19 18 19 16 16 15 16 11 9 10 13 16 17 21 24 23 21 20 20 18 15 14 13 10 11 7 6 9 10 5 2 4
19 19 19 20 20 20 20 19 19 19 19 18 20 19 15 14 12 14 15 12 10 13 15 12 20 24 28 25 18 18 19 15 14 14 12 10 9 11 14 7 7 8 3
20 21 20 20 20 20 20 20 20 20 19 19 18 18 18 12 21 27 23 15 12 11 13 13 16 25 23 28 30 30 26 20 16 14 12 16 15 15 11 13 10 10 6
20 20 20 20 22 21 20 20 20 20 19 20 19 18 18 17 25 27 27 17 15 12 12 13 14 17 23 21 24 26 30 35 32 19 19 18 16 20 15 15 13 13 9
19 20 20 21 21 22 20 20 20 18 18 18 18 17 19 16 28 26 29 19 18 16 14 13 15 20 23 24 21 21 21 22 23 17 22 20 17 20 20 18 18 9 6
19 20 21 21 22 22 20 21 20 18 17 17 17 17 18 17 27 28 27 16 17 16 13 15 15 18 28 30 22 20 19 16 19 24 25 30 27 31 22 13 12 12 4
21 23 22 22 21 21 21 19 16 18 18 15 17 16 19 19 28 29 24 15 12 11 12 14 20 21 32 33 24 21 21 18 18 10 9 19 27 29 34 23 19 18 8
20 21 21 20 20 20 19 17 18 18 18 16 16 16 17 19 18 29 26 12 10 11 11 11 11 28 35 36 32 23 24 18 21 17 14 12 14 16 16 14 18 18 16
20 21 21 19 16 16 19 18 17 16 17 13 13 14 13 14 20 24 27 27 21 14 11 11 12 29 35 38 30 30 31 25 16 15 14 13 14 14 14 14 16 15 17
19 19 19 19 16 17 18 18 15 14 13 15 13 14 10 8 11 24 30 29 27 19 10 15 17 28 34 33 35 31 26 16 16 15 15 14 14 14 15 14 12 5 3
18 18 17 17 19 17 13 13 14 13 13 13 13 15 14 13 9 9 10 13 24 17 18 14 16 22 26 24 21 22 17 17 18 18 15 13 12 13 13 14 11 12 9
16 16 16 14 16 16 14 14 14 14 17 13 13 13 14 14 14 25 15 9 10 13 12 9 10 14 15 14 14 15 15 16 16 13 13 14 14 13 14 12 10 13 14
15 13 14 14 14 14 15 14 22 28 29 25 28 20 13 23 31 29 22 22 21 22 10 11 10 12 13 14 15 15 14 16 15 14 14 14 16 15 14 12 11 13 14
13 14 12 14 13 14 15 16 18 19 28 28 31 30 32 29 33 32 20 20 17 22 10 10 12 12 12 13 13 15 16 14 14 13 13 14 13 14 17 13 15 13 12
12 15 11 11 12 13 13 14 14 16 18 18 25 29 31 29 30 33 31 8 7 12 6 5 9 11 11 12 12 13 13 12 13 13 14 15 14 14 14 14 15 15 14
10 10 11 10 10 13 11 12 13 14 14 14 17 23 27 33 29 34 37 16 12 12 11 10 9 5 6 9 11 12 13 13 14 13 13 13 14 14 15 14 14 19 18
9 14 12 9 10 11 11 12 13 14 14 15 16 18 18 19 20 20 18 16 14 13 12 12 11 10 8 7 4 10 12 13 13 13 13 13 13 14 14 14 14 15 16
7 8 13 9 10 10 11 12 12 12 13 14 14 18 35 15 16 16 16 15 15 14 14 13 11 11 10 8 7 5 5 8 12 13 13 12 13 13 12 11 12 13 13
6 7 8 8 9 10 11 10 11 12 13 14 14 15 33 15 15 15 15 14 14 14 12 12 11 12 11 10 10 9 8 7 5 3 9 11 11 11 12 12 12 12 12
6 7 8 8 8 11 10 10 11 11 12 12 13 13 15 14 15 15 15 14 14 14 13 13 14 14 12 11 11 10 9 8 6 5 3 7 8 9 10 10 9 10 11
5 6 7 7 8 8 9 10 10 13 12 12 12 13 13 13 14 15 15 13 13 13 13 13 14 18 17 15 13 12 12 9 8 10 11 8 6 5 5 6 7 9 9
3 4 5 6 7 8 8 9 9 10 10 11 11 11 12 12 13 13 12 12 13 12 14 14 13 19 21 24 23 22 22 22 17 15 10 12 13 13 8 6 8 8 8
4 5 4 5 6 7 7 7 8 9 9 9 10 10 10 10 10 11 11 12 12 12 15 12 16 21 23 20 23 25 25 25 21 20 13 13 13 11 10 11 13 9 10
Wind_Direction
309 309 307 308 304 300 298 299 297 298 309 308 304 298 304 303 250 212 243 279 281 270 279 233 181 178 172 172 171 176 168 172 160 100 93 180 124 141 150 141 156 164 174
307 307 304 307 307 301 297 298 297 292 293 292 296 296 293 289 281 223 230 270 277 296 273 272 192 178 176 170 170 175 174 164 150 146 130 166 141 146 159 149 157 150 155
310 306 306 310 305 301 299 297 296 293 295 291 287 285 286 289 294 270 258 269 288 290 277 291 206 177 185 170 170 168 170 161 142 150 132 152 107 156 124 87 128 113 102
312 311 310 310 305 303 299 298 294 292 291 288 285 279 272 280 282 289 271 265 275 277 285 288 198 176 181 172 174 172 167 159 150 149 145 156 158 153 162 157 143 82 122
311 310 309 309 307 303 301 297 293 290 288 283 287 286 274 275 275 268 272 257 255 273 293 274 200 183 185 177 168 165 160 156 157 156 152 155 159 158 177 158 155 155 58
310 309 311 311 308 307 305 298 293 291 287 285 281 280 280 265 269 267 263 270 257 264 286 278 273 181 178 182 170 165 160 152 160 159 162 169 168 170 162 165 150 153 168
309 311 313 314 312 308 306 303 297 293 290 283 280 278 274 269 267 265 259 255 258 253 259 289 290 194 179 180 172 163 167 163 162 166 162 178 164 171 161 170 168 173 167
311 312 316 316 311 309 307 303 297 290 285 280 279 275 274 272 263 261 255 250 253 246 250 262 264 201 180 177 173 162 170 169 167 166 167 170 171 168 170 176 169 141 53
314 319 317 318 310 307 304 300 293 288 281 273 271 270 267 270 268 263 258 259 235 238 246 247 244 220 177 175 169 163 167 171 174 159 172 164 167 170 163 138 158 160 128
324 319 317 315 306 303 301 301 300 294 280 271 269 262 258 261 258 260 251 242 229 238 242 248 238 218 172 179 174 172 170 174 159 133 158 161 160 173 169 169 161 173 155
316 316 312 310 303 303 310 309 307 303 295 271 259 260 254 251 253 258 253 247 233 241 240 246 232 190 172 180 180 182 183 157 164 157 155 158 166 170 177 176 176 175 177
320 316 311 310 313 316 315 318 317 315 308 297 268 271 258 251 247 253 253 237 235 233 229 236 211 182 174 181 181 179 174 160 162 158 163 170 171 173 181 178 182 190 196
319 314 314 318 323 321 324 325 327 324 324 324 320 320 266 245 241 247 246 246 241 237 232 233 194 180 177 182 184 178 166 170 168 165 177 179 176 174 171 178 185 166 109
319 320 323 328 329 330 332 332 328 329 330 325 332 330 324 313 258 243 229 232 233 225 226 219 177 177 179 183 184 175 170 177 177 182 181 172 160 167 178 178 178 181 188
324 323 329 333 333 332 340 335 335 333 329 332 334 330 326 320 322 299 273 254 223 209 194 174 171 178 178 183 182 175 180 181 180 180 172 170 171 172 180 177 175 182 198
326 330 337 336 338 339 337 338 343 344 342 348 339 346 322 324 333 323 273 282 227 187 170 171 176 184 181 182 176 176 180 178 182 171 176 175 176 172 177 174 176 187 194
323 328 337 340 341 342 346 345 342 344 350 354 347 359 348 348 351 344 322 263 200 165 172 173 177 181 182 176 180 178 177 177 172 174 169 173 175 175 175 178 185 186 193
327 332 341 338 342 345 348 347 346 347 346 346 346 4 1 358 8 12 28 29 90 19 9 160 175 178 181 176 177 179 176 172 173 171 178 171 176 173 176 183 191 190 189
336 340 343 343 345 350 348 353 352 351 351 348 342 4 6 5 12 26 34 38 31 30 24 20 3 359 171 180 179 179 177 178 176 170 177 175 178 177 186 192 190 197 186
341 340 350 348 349 355 355 360 360 357 355 1 359 2 4 1 17 19 22 23 23 25 19 22 11 5 7 2 192 180 178 178 175 174 178 178 180 182 190 185 192 191 197
334 338 352 357 357 357 360 359 360 3 1 1 0 357 17 15 14 21 18 19 17 15 16 18 11 15 11 7 4 23 154 180 178 175 174 178 181 183 188 189 191 197 203
335 341 353 0 354 358 2 359 2 3 5 2 358 0 11 15 14 18 17 16 16 16 12 13 16 21 16 14 14 23 40 36 21 182 180 179 180 184 188 190 189 191 195
345 353 360 360 1 359 360 3 3 4 4 3 360 2 7 10 7 14 6 8 12 12 9 16 22 19 18 23 22 23 30 24 358 358 131 166 175 180 181 185 186 184 191
343 354 1 359 0 3 2 1 5 6 3 5 4 2 4 7 7 8 5 4 9 10 10 16 17 23 16 26 26 26 27 21 26 31 50 49 58 83 133 159 171 182 182
331 353 358 359 354 355 355 1 2 1 2 2 6 2 2 3 3 4 0 6 2 5 11 14 9 21 23 22 30 33 34 33 37 43 48 60 60 51 55 64 78 83 103
350 7 353 354 359 354 353 355 360 355 357 360 358 1 360 0 1 359 358 7 1 4 11 11 6 23 29 27 27 32 39 43 40 39 49 56 59 54 54 58 65 70 77